Time,TemperatureF,DewpointF,PressureIn,WindDirection,WindDirectionDegrees,WindSpeedMPH,WindSpeedGustMPH,Humidity,HourlyPrecipIn,Conditions,Clouds,dailyrainin,SoftwareType,DateUTC
2013-04-09 00:00:00,54.4,28.7,29.51,NNW,338,4.7,4.7,37,0.00,,---,0.00,VWS V14.01,2013-04-09 06:00:00,
2013-04-09 00:05:00,54.0,28.3,29.51,WNW,292,7.4,7.4,37,0.00,,---,0.00,VWS V14.01,2013-04-09 06:05:00,
2013-04-09 00:10:00,53.8,28.8,29.51,NNW,338,9.2,9.2,38,0.00,,---,0.00,VWS V14.01,2013-04-09 06:10:00,
2013-04-09 00:15:00,53.6,28.6,29.50,NNE,22,4.7,4.7,38,0.00,,---,0.00,VWS V14.01,2013-04-09 06:15:00,
2013-04-09 00:20:00,53.5,28.5,29.50,WNW,292,4.0,4.0,38,0.00,,---,0.00,VWS V14.01,2013-04-09 06:20:00,
2013-04-09 00:25:00,53.5,28.5,29.51,NW,315,4.9,4.9,38,0.00,,---,0.00,VWS V14.01,2013-04-09 06:25:00,
2013-04-09 00:30:00,53.3,28.4,29.51,WNW,292,8.5,8.5,38,0.00,,---,0.00,VWS V14.01,2013-04-09 06:30:00,
2013-04-09 00:35:00,53.1,28.2,29.50,North,0,6.3,6.3,38,0.00,,---,0.00,VWS V14.01,2013-04-09 06:35:00,
2013-04-09 00:40:00,52.9,28.6,29.50,NW,315,3.6,3.6,39,0.00,,---,0.00,VWS V14.01,2013-04-09 06:40:00,
2013-04-09 00:45:00,52.7,28.5,29.50,NNW,338,6.3,6.3,39,0.00,,---,0.00,VWS V14.01,2013-04-09 06:45:00,
2013-04-09 00:50:00,52.6,29.0,29.50,NW,315,7.6,7.6,40,0.00,,---,0.00,VWS V14.01,2013-04-09 06:50:00,
2013-04-09 00:55:00,52.6,28.4,29.50,NNW,338,2.5,2.5,39,0.00,,---,0.00,VWS V14.01,2013-04-09 06:55:00,
2013-04-09 01:00:00,52.4,28.8,29.50,NW,315,4.0,4.0,40,0.00,,---,0.00,VWS V14.01,2013-04-09 07:00:00,
2013-04-09 01:05:00,52.0,28.5,29.50,WNW,292,4.9,4.9,40,0.00,,---,0.00,VWS V14.01,2013-04-09 07:05:00,
2013-04-09 01:10:00,52.0,28.5,29.50,NW,315,4.3,4.3,40,0.00,,---,0.00,VWS V14.01,2013-04-09 07:10:00,
2013-04-09 01:15:00,51.8,28.3,29.50,NW,315,6.3,6.3,40,0.00,,---,0.00,VWS V14.01,2013-04-09 07:15:00,
2013-04-09 01:20:00,51.8,28.3,29.50,NW,315,4.0,4.0,40,0.00,,---,0.00,VWS V14.01,2013-04-09 07:20:00,
2013-04-09 01:25:00,51.7,28.8,29.50,WNW,292,7.2,7.2,41,0.00,,---,0.00,VWS V14.01,2013-04-09 07:25:00,
2013-04-09 01:30:00,51.5,28.6,29.50,WNW,292,2.5,2.5,41,0.00,,---,0.00,VWS V14.01,2013-04-09 07:30:00,
2013-04-09 01:35:00,51.3,28.4,29.50,NW,315,4.0,4.0,41,0.00,,---,0.00,VWS V14.01,2013-04-09 07:35:00,
2013-04-09 01:40:00,51.1,28.2,29.50,WNW,292,4.0,4.0,41,0.00,,---,0.00,VWS V14.01,2013-04-09 07:40:00,
2013-04-09 01:45:00,50.9,28.6,29.49,WNW,292,4.0,4.0,42,0.00,,---,0.00,VWS V14.01,2013-04-09 07:45:00,
2013-04-09 01:50:00,50.8,28.5,29.49,WNW,292,6.0,6.0,42,0.00,,---,0.00,VWS V14.01,2013-04-09 07:50:00,
2013-04-09 01:55:00,50.6,28.4,29.48,NW,315,0.9,0.9,42,0.00,,---,0.00,VWS V14.01,2013-04-09 07:55:00,
2013-04-09 02:00:00,50.4,28.2,29.48,NW,315,5.4,5.4,42,0.00,,---,0.00,VWS V14.01,2013-04-09 08:00:00,
2013-04-09 02:05:00,50.4,28.8,29.47,NW,315,2.0,2.0,43,0.00,,---,0.00,VWS V14.01,2013-04-09 08:05:00,
2013-04-09 02:10:00,50.2,28.6,29.47,NNW,338,2.0,2.0,43,0.00,,---,0.00,VWS V14.01,2013-04-09 08:10:00,
2013-04-09 02:15:00,50.0,28.4,29.47,NNW,338,1.8,1.8,43,0.00,,---,0.00,VWS V14.01,2013-04-09 08:15:00,
2013-04-09 02:20:00,50.0,27.8,29.47,NW,315,1.3,1.3,42,0.00,,---,0.00,VWS V14.01,2013-04-09 08:20:00,
2013-04-09 02:25:00,50.0,27.8,29.47,NW,315,1.3,1.3,42,0.00,,---,0.00,VWS V14.01,2013-04-09 08:25:00,
2013-04-09 02:30:00,50.0,27.8,29.47,NW,315,0.7,0.7,42,0.00,,---,0.00,VWS V14.01,2013-04-09 08:30:00,
2013-04-09 02:35:00,50.0,27.8,29.47,WNW,292,3.4,3.4,42,0.00,,---,0.00,VWS V14.01,2013-04-09 08:35:00,
2013-04-09 02:40:00,50.0,27.8,29.47,NW,315,1.6,1.6,42,0.00,,---,0.00,VWS V14.01,2013-04-09 08:40:00,
2013-04-09 02:45:00,49.7,27.6,29.47,West,270,2.0,2.0,42,0.00,,---,0.00,VWS V14.01,2013-04-09 08:45:00,
2013-04-09 02:50:00,49.7,28.1,29.48,WSW,248,9.2,9.2,43,0.00,,---,0.00,VWS V14.01,2013-04-09 08:50:00,
2013-04-09 02:55:00,49.7,28.1,29.48,West,270,5.4,5.4,43,0.00,,---,0.00,VWS V14.01,2013-04-09 08:55:00,
2013-04-09 03:00:00,49.3,27.8,29.49,SW,225,6.3,6.3,43,0.00,,---,0.00,VWS V14.01,2013-04-09 09:00:00,
2013-04-09 03:05:00,49.3,28.3,29.49,SW,225,1.3,1.3,44,0.00,,---,0.00,VWS V14.01,2013-04-09 09:05:00,
2013-04-09 03:10:00,49.1,28.1,29.49,WNW,292,6.5,6.5,44,0.00,,---,0.00,VWS V14.01,2013-04-09 09:10:00,
2013-04-09 03:15:00,49.0,28.0,29.48,West,270,4.5,4.5,44,0.00,,---,0.00,VWS V14.01,2013-04-09 09:15:00,
2013-04-09 03:20:00,48.6,28.2,29.47,NW,315,5.1,5.1,45,0.00,,---,0.00,VWS V14.01,2013-04-09 09:20:00,
2013-04-09 03:25:00,48.4,28.6,29.47,NW,315,7.4,7.4,46,0.00,,---,0.00,VWS V14.01,2013-04-09 09:25:00,
2013-04-09 03:30:00,48.4,29.1,29.47,NW,315,1.8,1.8,47,0.00,,---,0.00,VWS V14.01,2013-04-09 09:30:00,
2013-04-09 03:35:00,48.2,28.9,29.47,NNW,338,4.7,4.7,47,0.00,,---,0.00,VWS V14.01,2013-04-09 09:35:00,
2013-04-09 03:40:00,48.4,29.1,29.47,NW,315,3.6,3.6,47,0.00,,---,0.00,VWS V14.01,2013-04-09 09:40:00,
2013-04-09 03:45:00,48.4,28.6,29.47,NNW,338,0.4,0.4,46,0.00,,---,0.00,VWS V14.01,2013-04-09 09:45:00,
2013-04-09 03:50:00,48.4,29.1,29.47,West,270,3.4,3.4,47,0.00,,---,0.00,VWS V14.01,2013-04-09 09:50:00,
2013-04-09 03:55:00,48.6,29.3,29.47,WNW,292,2.5,2.5,47,0.00,,---,0.00,VWS V14.01,2013-04-09 09:55:00,
2013-04-09 04:00:00,48.6,29.3,29.47,NW,315,3.6,3.6,47,0.00,,---,0.00,VWS V14.01,2013-04-09 10:00:00,
2013-04-09 04:05:00,48.6,29.3,29.47,NW,315,3.1,3.1,47,0.00,,---,0.00,VWS V14.01,2013-04-09 10:05:00,
2013-04-09 04:10:00,48.6,29.8,29.47,NNW,338,1.3,1.3,48,0.00,,---,0.00,VWS V14.01,2013-04-09 10:10:00,
2013-04-09 04:15:00,48.2,30.9,29.46,NW,315,6.0,6.0,51,0.00,,---,0.00,VWS V14.01,2013-04-09 10:15:00,
2013-04-09 04:20:00,47.9,31.6,29.45,NNW,338,7.6,7.6,53,0.00,,---,0.00,VWS V14.01,2013-04-09 10:20:00,
2013-04-09 04:25:00,47.9,31.1,29.46,NE,45,6.9,6.9,52,0.00,,---,0.00,VWS V14.01,2013-04-09 10:25:00,
2013-04-09 04:30:00,48.2,30.5,29.45,NNE,22,5.4,5.4,50,0.00,,---,0.00,VWS V14.01,2013-04-09 10:30:00,
2013-04-09 04:35:00,48.2,30.0,29.45,NE,45,6.3,6.3,49,0.00,,---,0.00,VWS V14.01,2013-04-09 10:35:00,
2013-04-09 04:40:00,48.6,29.3,29.46,SE,135,0.4,0.4,47,0.00,,---,0.00,VWS V14.01,2013-04-09 10:40:00,
2013-04-09 04:45:00,48.6,28.8,29.46,North,0,1.8,1.8,46,0.00,,---,0.00,VWS V14.01,2013-04-09 10:45:00,
2013-04-09 04:51:00,48.8,29.0,29.46,NNW,338,0.2,0.2,46,0.00,,---,0.00,VWS V14.01,2013-04-09 10:51:00,
2013-04-09 04:56:00,49.3,29.9,29.46,SSW,202,6.9,6.9,47,0.00,,---,0.00,VWS V14.01,2013-04-09 10:56:00,
2013-04-09 05:01:00,49.7,30.3,29.47,SSW,202,5.8,5.8,47,0.00,,---,0.00,VWS V14.01,2013-04-09 11:01:00,
2013-04-09 05:06:00,49.0,32.6,29.48,SW,225,3.1,3.1,53,0.00,,---,0.00,VWS V14.01,2013-04-09 11:06:00,
2013-04-09 05:11:00,48.1,31.8,29.48,WSW,248,4.9,4.9,53,0.00,,---,0.00,VWS V14.01,2013-04-09 11:11:00,
2013-04-09 05:16:00,47.9,31.6,29.48,WSW,248,8.5,8.5,53,0.00,,---,0.00,VWS V14.01,2013-04-09 11:16:00,
2013-04-09 05:21:00,47.2,34.5,29.49,SW,225,7.6,7.6,61,0.00,,---,0.00,VWS V14.01,2013-04-09 11:21:00,
2013-04-09 05:26:00,45.7,33.4,29.49,SW,225,13.6,13.6,62,0.00,,---,0.00,VWS V14.01,2013-04-09 11:26:00,
2013-04-09 05:31:00,46.1,32.6,29.49,SSW,202,12.1,12.1,59,0.00,,---,0.00,VWS V14.01,2013-04-09 11:31:00,
2013-04-09 05:35:00,46.3,33.2,29.49,SE,135,2.7,2.7,60,0.00,,---,0.00,VWS V14.01,2013-04-09 11:35:00,
2013-04-09 05:41:00,46.4,33.7,29.49,SE,135,6.5,6.5,61,0.00,,---,0.00,VWS V14.01,2013-04-09 11:41:00,
2013-04-09 05:46:00,46.4,33.3,29.49,ESE,112,5.4,5.4,60,0.00,,---,0.00,VWS V14.01,2013-04-09 11:46:00,
2013-04-09 05:51:00,46.4,32.9,29.50,SSE,158,3.4,3.4,59,0.00,,---,0.00,VWS V14.01,2013-04-09 11:51:00,
2013-04-09 05:55:00,46.6,33.0,29.50,South,180,3.4,3.4,59,0.00,,---,0.00,VWS V14.01,2013-04-09 11:55:00,
2013-04-09 06:00:00,46.8,33.7,29.50,SSE,158,1.1,1.1,60,0.00,,---,0.00,VWS V14.01,2013-04-09 12:00:00,
2013-04-09 06:05:00,46.6,33.0,29.50,SE,135,2.9,2.9,59,0.00,,---,0.00,VWS V14.01,2013-04-09 12:05:00,
2013-04-09 06:10:00,46.6,33.0,29.50,SE,135,4.0,4.0,59,0.00,,---,0.00,VWS V14.01,2013-04-09 12:10:00,
2013-04-09 06:15:00,46.4,32.9,29.50,SE,135,1.6,1.6,59,0.00,,---,0.00,VWS V14.01,2013-04-09 12:15:00,
2013-04-09 06:20:00,46.4,32.4,29.51,SE,135,3.8,3.8,58,0.00,,---,0.00,VWS V14.01,2013-04-09 12:20:00,
2013-04-09 06:25:00,46.4,32.4,29.51,SSE,158,0.2,0.2,58,0.00,,---,0.00,VWS V14.01,2013-04-09 12:25:00,
2013-04-09 06:30:00,46.4,33.3,29.51,WSW,248,1.1,1.1,60,0.00,,---,0.00,VWS V14.01,2013-04-09 12:30:00,
2013-04-09 06:35:00,46.4,32.4,29.51,SSE,158,2.2,2.2,58,0.00,,---,0.00,VWS V14.01,2013-04-09 12:35:00,
2013-04-09 06:40:00,46.4,32.4,29.52,SSE,158,0.4,0.4,58,0.00,,---,0.00,VWS V14.01,2013-04-09 12:40:00,
2013-04-09 06:46:00,46.4,32.0,29.52,South,180,0.4,0.4,57,0.00,,---,0.00,VWS V14.01,2013-04-09 12:46:00,
2013-04-09 06:51:00,46.8,32.0,29.52,SE,135,2.7,2.7,56,0.00,,---,0.00,VWS V14.01,2013-04-09 12:51:00,
2013-04-09 06:56:00,47.5,29.8,29.53,SSE,158,6.3,6.3,50,0.00,,---,0.00,VWS V14.01,2013-04-09 12:56:00,
2013-04-09 07:01:00,47.7,28.5,29.53,South,180,3.4,3.4,47,0.00,,---,0.00,VWS V14.01,2013-04-09 13:01:00,
2013-04-09 07:06:00,47.5,27.8,29.54,South,180,5.6,5.6,46,0.00,,---,0.00,VWS V14.01,2013-04-09 13:06:00,
2013-04-09 07:11:00,47.2,28.0,29.54,SSE,158,6.9,6.9,47,0.00,,---,0.00,VWS V14.01,2013-04-09 13:11:00,
2013-04-09 07:16:00,46.6,28.5,29.54,South,180,7.6,7.6,49,0.00,,---,0.00,VWS V14.01,2013-04-09 13:16:00,
2013-04-09 07:21:00,46.3,28.7,29.54,South,180,5.4,5.4,50,0.00,,---,0.00,VWS V14.01,2013-04-09 13:21:00,
2013-04-09 07:26:00,45.9,28.3,29.54,SSE,158,6.5,6.5,50,0.00,,---,0.00,VWS V14.01,2013-04-09 13:26:00,
2013-04-09 07:31:00,45.7,28.1,29.54,SSE,158,4.9,4.9,50,0.00,,---,0.00,VWS V14.01,2013-04-09 13:31:00,
2013-04-09 07:36:00,45.5,28.0,29.55,South,180,6.0,6.0,50,0.00,,---,0.00,VWS V14.01,2013-04-09 13:36:00,
2013-04-09 07:41:00,45.0,28.5,29.56,SE,135,6.9,6.9,52,0.00,,---,0.00,VWS V14.01,2013-04-09 13:41:00,
2013-04-09 07:46:00,44.8,28.7,29.56,SSW,202,2.2,2.2,53,0.00,,---,0.00,VWS V14.01,2013-04-09 13:46:00,
2013-04-09 07:51:00,44.6,28.5,29.56,South,180,5.6,5.6,53,0.00,,---,0.00,VWS V14.01,2013-04-09 13:51:00,
2013-04-09 07:56:00,44.3,26.9,29.56,SSW,202,4.3,4.3,50,0.00,,---,0.00,VWS V14.01,2013-04-09 13:56:00,
2013-04-09 08:01:00,44.3,24.3,29.56,South,180,7.6,7.6,45,0.00,,---,0.00,VWS V14.01,2013-04-09 14:01:00,
2013-04-09 08:06:00,44.1,24.1,29.56,SSE,158,8.9,8.9,45,0.00,,---,0.00,VWS V14.01,2013-04-09 14:06:00,
2013-04-09 08:11:00,43.6,24.2,29.56,SW,225,11.2,11.2,46,0.00,,---,0.00,VWS V14.01,2013-04-09 14:11:00,
2013-04-09 08:16:00,43.2,23.8,29.56,SSW,202,7.2,7.2,46,0.00,,---,0.00,VWS V14.01,2013-04-09 14:16:00,
2013-04-09 08:21:00,43.2,23.8,29.56,South,180,15.2,15.2,46,0.00,,---,0.00,VWS V14.01,2013-04-09 14:21:00,
2013-04-09 08:26:00,43.4,24.5,29.56,SSW,202,4.0,4.0,47,0.00,,---,0.00,VWS V14.01,2013-04-09 14:26:00,
2013-04-09 08:31:00,43.4,25.0,29.57,SSE,158,4.9,4.9,48,0.00,,---,0.00,VWS V14.01,2013-04-09 14:31:00,
2013-04-09 08:36:00,43.4,24.5,29.57,South,180,4.9,4.9,47,0.00,,---,0.00,VWS V14.01,2013-04-09 14:36:00,
2013-04-09 08:41:00,43.6,24.2,29.57,SSW,202,8.5,8.5,46,0.00,,---,0.00,VWS V14.01,2013-04-09 14:41:00,
2013-04-09 08:46:00,43.7,24.8,29.57,South,180,8.7,8.7,47,0.00,,---,0.00,VWS V14.01,2013-04-09 14:46:00,
2013-04-09 08:51:00,43.7,24.8,29.58,South,180,8.9,8.9,47,0.00,,---,0.00,VWS V14.01,2013-04-09 14:51:00,
2013-04-09 08:56:00,43.7,24.3,29.58,SSE,158,7.6,7.6,46,0.00,,---,0.00,VWS V14.01,2013-04-09 14:56:00,
2013-04-09 09:01:00,43.7,24.3,29.58,SSW,202,5.1,14.3,46,0.00,,---,0.00,VWS V14.01,2013-04-09 15:01:00,
2013-04-09 09:06:00,44.1,24.1,29.58,South,180,12.1,12.1,45,0.00,,---,0.00,VWS V14.01,2013-04-09 15:06:00,
2013-04-09 09:11:00,44.1,24.1,29.58,South,180,11.2,11.2,45,0.00,,---,0.00,VWS V14.01,2013-04-09 15:11:00,
2013-04-09 09:16:00,44.3,24.3,29.59,South,180,4.5,4.5,45,0.00,,---,0.00,VWS V14.01,2013-04-09 15:16:00,
2013-04-09 09:21:00,44.5,24.0,29.59,South,180,6.7,6.7,44,0.00,,---,0.00,VWS V14.01,2013-04-09 15:21:00,
2013-04-09 09:26:00,44.1,24.1,29.60,SSW,202,5.4,5.4,45,0.00,,---,0.00,VWS V14.01,2013-04-09 15:26:00,
2013-04-09 09:31:00,43.6,25.2,29.60,South,180,5.4,5.4,48,0.00,,---,0.00,VWS V14.01,2013-04-09 15:31:00,
2013-04-09 09:36:00,43.4,25.0,29.61,SE,135,7.4,7.4,48,0.00,,---,0.00,VWS V14.01,2013-04-09 15:36:00,
2013-04-09 09:41:00,43.4,25.0,29.61,SSW,202,5.1,5.1,48,0.00,,---,0.00,VWS V14.01,2013-04-09 15:41:00,
2013-04-09 09:46:00,42.5,27.5,29.62,SW,225,10.7,10.7,55,0.00,,---,0.00,VWS V14.01,2013-04-09 15:46:00,
2013-04-09 09:51:00,41.0,28.2,29.62,SW,225,8.5,8.5,60,0.00,,---,0.00,VWS V14.01,2013-04-09 15:51:00,
2013-04-09 09:56:00,40.7,28.7,29.62,SW,225,7.2,7.2,62,0.00,,---,0.00,VWS V14.01,2013-04-09 15:56:00,
2013-04-09 10:01:00,40.7,29.1,29.63,West,270,8.3,8.3,63,0.00,,---,0.00,VWS V14.01,2013-04-09 16:01:00,
2013-04-09 10:06:00,40.7,29.9,29.63,WSW,248,2.9,2.9,65,0.00,,---,0.00,VWS V14.01,2013-04-09 16:06:00,
2013-04-09 10:11:00,40.1,29.7,29.63,SW,225,3.8,3.8,66,0.00,,---,0.00,VWS V14.01,2013-04-09 16:11:00,
2013-04-09 10:16:00,40.3,30.2,29.64,SW,225,7.8,7.8,67,0.00,,---,0.00,VWS V14.01,2013-04-09 16:16:00,
2013-04-09 10:21:00,40.7,30.6,29.64,SSW,202,3.1,3.1,67,0.00,,---,0.00,VWS V14.01,2013-04-09 16:21:00,
2013-04-09 10:26:00,40.7,30.6,29.64,WSW,248,3.4,3.4,67,0.00,,---,0.00,VWS V14.01,2013-04-09 16:26:00,
2013-04-09 10:31:00,41.2,30.7,29.64,South,180,0.9,0.9,66,0.00,,---,0.00,VWS V14.01,2013-04-09 16:31:00,
2013-04-09 10:36:00,41.6,30.0,29.64,SW,225,4.5,4.5,63,0.00,,---,0.00,VWS V14.01,2013-04-09 16:36:00,
2013-04-09 10:41:00,41.9,30.2,29.64,South,180,0.2,0.2,63,0.00,,---,0.00,VWS V14.01,2013-04-09 16:41:00,
2013-04-09 10:46:00,42.3,30.2,29.64,WSW,248,3.4,3.4,62,0.00,,---,0.00,VWS V14.01,2013-04-09 16:46:00,
2013-04-09 10:51:00,42.7,29.0,29.64,SSW,202,0.2,0.2,58,0.00,,---,0.00,VWS V14.01,2013-04-09 16:51:00,
2013-04-09 10:56:00,43.6,29.4,29.64,South,180,1.1,1.1,57,0.00,,---,0.00,VWS V14.01,2013-04-09 16:56:00,
2013-04-09 11:01:00,43.9,28.4,29.64,SE,135,0.4,0.4,54,0.00,,---,0.00,VWS V14.01,2013-04-09 17:01:00,
2013-04-09 11:06:00,44.1,28.5,29.64,SE,135,0.9,0.9,54,0.00,,---,0.00,VWS V14.01,2013-04-09 17:06:00,
2013-04-09 11:11:00,45.0,28.9,29.64,SW,225,1.3,1.3,53,0.00,,---,0.00,VWS V14.01,2013-04-09 17:11:00,
2013-04-09 11:16:00,44.6,28.1,29.64,SSW,202,1.6,1.6,52,0.00,,---,0.00,VWS V14.01,2013-04-09 17:16:00,
2013-04-09 11:21:00,44.6,27.1,29.64,WSW,248,6.7,6.7,50,0.00,,---,0.00,VWS V14.01,2013-04-09 17:21:00,
2013-04-09 11:26:00,45.0,26.5,29.64,WSW,248,2.9,2.9,48,0.00,,---,0.00,VWS V14.01,2013-04-09 17:26:00,
2013-04-09 11:31:00,45.7,26.6,29.64,WSW,248,2.7,2.7,47,0.00,,---,0.00,VWS V14.01,2013-04-09 17:31:00,
2013-04-09 11:36:00,46.8,27.1,29.65,South,180,2.5,2.5,46,0.00,,---,0.00,VWS V14.01,2013-04-09 17:36:00,
2013-04-09 11:41:00,46.1,27.0,29.64,NW,315,2.0,2.0,47,0.00,,---,0.00,VWS V14.01,2013-04-09 17:41:00,
2013-04-09 11:46:00,45.4,27.4,29.64,WSW,248,4.7,4.7,49,0.00,,---,0.00,VWS V14.01,2013-04-09 17:46:00,
2013-04-09 11:51:00,45.5,26.5,29.64,WSW,248,4.5,4.5,47,0.00,,---,0.00,VWS V14.01,2013-04-09 17:51:00,
2013-04-09 11:56:00,45.2,26.2,29.65,West,270,0.7,0.7,47,0.00,,---,0.00,VWS V14.01,2013-04-09 17:56:00,
2013-04-09 12:01:00,45.4,26.4,29.65,SSW,202,6.3,6.3,47,0.00,,---,0.00,VWS V14.01,2013-04-09 18:01:00,
2013-04-09 12:06:00,46.4,27.3,29.65,SE,135,0.9,0.9,47,0.00,,---,0.00,VWS V14.01,2013-04-09 18:06:00,
2013-04-09 12:11:00,48.6,27.1,29.64,SE,135,2.2,2.2,43,0.00,,---,0.00,VWS V14.01,2013-04-09 18:11:00,
2013-04-09 12:16:00,49.0,26.9,29.64,West,270,1.8,1.8,42,0.00,,---,0.00,VWS V14.01,2013-04-09 18:16:00,
2013-04-09 12:21:00,51.1,27.6,29.64,NE,45,3.1,3.1,40,0.00,,---,0.00,VWS V14.01,2013-04-09 18:21:00,
2013-04-09 12:26:00,50.4,27.6,29.64,NW,315,7.4,7.4,41,0.00,,---,0.00,VWS V14.01,2013-04-09 18:26:00,
2013-04-09 12:31:00,48.2,26.8,29.65,West,270,4.7,4.7,43,0.00,,---,0.00,VWS V14.01,2013-04-09 18:31:00,
2013-04-09 12:36:00,48.1,27.2,29.64,North,0,5.4,5.4,44,0.00,,---,0.00,VWS V14.01,2013-04-09 18:36:00,
2013-04-09 12:41:00,47.9,27.0,29.65,West,270,5.8,5.8,44,0.00,,---,0.00,VWS V14.01,2013-04-09 18:41:00,
2013-04-09 12:46:00,47.5,27.8,29.65,West,270,5.4,5.4,46,0.00,,---,0.00,VWS V14.01,2013-04-09 18:46:00,
2013-04-09 12:51:00,47.0,27.3,29.65,SW,225,1.8,1.8,46,0.00,,---,0.00,VWS V14.01,2013-04-09 18:51:00,
2013-04-09 12:56:00,46.6,26.9,29.66,SW,225,5.6,5.6,46,0.00,,---,0.00,VWS V14.01,2013-04-09 18:56:00,
2013-04-09 13:01:00,46.3,26.7,29.66,South,180,6.5,6.5,46,0.00,,---,0.00,VWS V14.01,2013-04-09 19:01:00,
2013-04-09 13:06:00,45.4,26.4,29.66,SSW,202,5.4,5.4,47,0.00,,---,0.00,VWS V14.01,2013-04-09 19:06:00,
2013-04-09 13:11:00,44.8,25.8,29.66,SSE,158,4.0,4.0,47,0.00,,---,0.00,VWS V14.01,2013-04-09 19:11:00,
2013-04-09 13:16:00,44.8,25.8,29.66,SE,135,2.5,2.5,47,0.00,,---,0.00,VWS V14.01,2013-04-09 19:16:00,
2013-04-09 13:21:00,44.6,27.1,29.66,SE,135,3.6,3.6,50,0.00,,---,0.00,VWS V14.01,2013-04-09 19:21:00,
2013-04-09 13:26:00,44.1,27.1,29.66,ESE,112,4.3,4.3,51,0.00,,---,0.00,VWS V14.01,2013-04-09 19:26:00,
2013-04-09 13:31:00,43.9,27.0,29.66,SE,135,2.5,2.5,51,0.00,,---,0.00,VWS V14.01,2013-04-09 19:31:00,
2013-04-09 13:36:00,44.3,28.3,29.66,South,180,6.0,6.0,53,0.00,,---,0.00,VWS V14.01,2013-04-09 19:36:00,
2013-04-09 13:41:00,42.5,30.0,29.67,SE,135,4.9,4.9,61,0.00,,---,0.00,VWS V14.01,2013-04-09 19:41:00,
2013-04-09 13:46:00,41.4,29.8,29.67,ESE,112,6.7,6.7,63,0.00,,---,0.00,VWS V14.01,2013-04-09 19:46:00,
2013-04-09 13:51:00,41.0,30.1,29.66,ESE,112,3.1,3.1,65,0.00,,---,0.00,VWS V14.01,2013-04-09 19:51:00,
2013-04-09 13:56:00,41.4,29.8,29.66,ESE,112,4.3,4.3,63,0.00,,---,0.00,VWS V14.01,2013-04-09 19:56:00,
2013-04-09 14:01:00,42.1,28.4,29.66,SE,135,6.3,6.3,58,0.00,,---,0.00,VWS V14.01,2013-04-09 20:01:00,
2013-04-09 14:06:00,42.8,27.8,29.66,ESE,112,4.9,4.9,55,0.00,,---,0.00,VWS V14.01,2013-04-09 20:06:00,
2013-04-09 14:11:00,43.2,27.7,29.66,SSE,158,4.0,4.0,54,0.00,,---,0.00,VWS V14.01,2013-04-09 20:11:00,
2013-04-09 14:16:00,43.6,28.5,29.67,South,180,1.1,1.1,55,0.00,,---,0.00,VWS V14.01,2013-04-09 20:16:00,
2013-04-09 14:21:00,43.7,28.6,29.67,SSE,158,2.5,2.5,55,0.00,,---,0.00,VWS V14.01,2013-04-09 20:21:00,
2013-04-09 14:26:00,43.7,28.2,29.67,SSE,158,1.1,1.1,54,0.00,,---,0.00,VWS V14.01,2013-04-09 20:26:00,
2013-04-09 14:31:00,43.9,29.2,29.67,SSE,158,2.2,2.2,56,0.00,,---,0.00,VWS V14.01,2013-04-09 20:31:00,
2013-04-09 14:36:00,43.6,29.4,29.68,SSE,158,4.3,4.3,57,0.00,,---,0.00,VWS V14.01,2013-04-09 20:36:00,
2013-04-09 14:41:00,42.8,29.5,29.68,SSE,158,3.4,3.4,59,0.00,,---,0.00,VWS V14.01,2013-04-09 20:41:00,
2013-04-09 14:46:00,42.5,29.6,29.67,SSE,158,0.4,0.4,60,0.00,,---,0.00,VWS V14.01,2013-04-09 20:46:00,
2013-04-09 14:51:00,42.5,30.4,29.67,ESE,112,1.3,1.3,62,0.00,,---,0.00,VWS V14.01,2013-04-09 20:51:00,
2013-04-09 14:56:00,42.8,29.9,29.67,SSE,158,7.6,7.6,60,0.00,,---,0.00,VWS V14.01,2013-04-09 20:56:00,
2013-04-09 15:01:00,43.2,29.9,29.67,SSW,202,5.4,5.4,59,0.00,,---,0.00,VWS V14.01,2013-04-09 21:01:00,
2013-04-09 15:06:00,43.4,30.5,29.68,SSW,202,5.4,7.4,60,0.00,,---,0.00,VWS V14.01,2013-04-09 21:06:00,
2013-04-09 15:11:00,43.2,30.3,29.69,SSW,202,4.3,4.3,60,0.00,,---,0.00,VWS V14.01,2013-04-09 21:11:00,
2013-04-09 15:16:00,42.5,30.8,29.69,SSW,202,2.5,2.5,63,0.00,,---,0.00,VWS V14.01,2013-04-09 21:16:00,
2013-04-09 15:22:00,42.1,32.0,29.70,SSE,158,2.0,2.0,67,0.00,,---,0.00,VWS V14.01,2013-04-09 21:22:00,
2013-04-09 15:27:00,41.6,32.2,29.70,SSE,158,0.7,0.7,69,0.00,,---,0.00,VWS V14.01,2013-04-09 21:27:00,
2013-04-09 15:32:00,41.2,31.8,29.71,SSE,158,2.0,2.0,69,0.01,,---,0.01,VWS V14.01,2013-04-09 21:32:00,
2013-04-09 15:37:00,40.5,32.5,29.71,SE,135,1.8,1.8,73,0.01,,---,0.01,VWS V14.01,2013-04-09 21:37:00,
2013-04-09 15:42:00,39.6,32.0,29.72,SSE,158,1.1,1.1,74,0.02,,---,0.02,VWS V14.01,2013-04-09 21:42:00,
2013-04-09 15:47:00,39.2,32.0,29.72,SW,225,0.0,0.0,75,0.03,,---,0.03,VWS V14.01,2013-04-09 21:47:00,
2013-04-09 15:52:00,39.1,32.5,29.72,SSE,158,0.4,0.4,77,0.03,,---,0.03,VWS V14.01,2013-04-09 21:52:00,
2013-04-09 15:57:00,38.9,33.0,29.71,SSE,158,1.8,1.8,79,0.04,,---,0.04,VWS V14.01,2013-04-09 21:57:00,
2013-04-09 16:02:00,39.1,33.5,29.72,SE,135,0.9,0.9,80,0.05,,---,0.05,VWS V14.01,2013-04-09 22:02:00,
2013-04-09 16:07:00,38.5,32.9,29.71,East,90,2.7,2.7,80,0.06,,---,0.06,VWS V14.01,2013-04-09 22:07:00,
2013-04-09 16:12:00,38.3,33.3,29.70,ESE,112,8.1,8.1,82,0.07,,---,0.07,VWS V14.01,2013-04-09 22:12:00,
2013-04-09 16:17:00,38.2,33.5,29.70,ESE,112,7.4,7.4,83,0.07,,---,0.07,VWS V14.01,2013-04-09 22:17:00,
2013-04-09 16:22:00,38.3,33.6,29.69,ESE,112,3.4,3.4,83,0.07,,---,0.07,VWS V14.01,2013-04-09 22:22:00,
2013-04-09 16:27:00,38.2,33.5,29.69,ESE,112,5.8,5.8,83,0.07,,---,0.07,VWS V14.01,2013-04-09 22:27:00,
2013-04-09 16:32:00,38.5,33.5,29.69,ESE,112,6.0,6.0,82,0.06,,---,0.07,VWS V14.01,2013-04-09 22:32:00,
2013-04-09 16:37:00,39.2,33.9,29.69,ESE,112,7.8,7.8,81,0.06,,---,0.07,VWS V14.01,2013-04-09 22:37:00,
2013-04-09 16:42:00,39.8,33.8,29.69,ESE,112,7.8,7.8,79,0.05,,---,0.07,VWS V14.01,2013-04-09 22:42:00,
2013-04-09 16:47:00,40.0,33.4,29.69,ESE,112,8.5,8.5,77,0.05,,---,0.08,VWS V14.01,2013-04-09 22:47:00,
2013-04-09 16:52:00,40.5,33.9,29.69,ESE,112,6.5,6.5,77,0.05,,---,0.08,VWS V14.01,2013-04-09 22:52:00,
2013-04-09 16:57:00,40.7,33.4,29.68,SE,135,7.6,7.6,75,0.04,,---,0.08,VWS V14.01,2013-04-09 22:57:00,
2013-04-09 17:02:00,41.4,33.8,29.68,ESE,112,4.5,4.5,74,0.03,,---,0.08,VWS V14.01,2013-04-09 23:02:00,
2013-04-09 17:07:00,41.8,34.1,29.70,ESE,112,3.4,3.4,74,0.02,,---,0.08,VWS V14.01,2013-04-09 23:07:00,
2013-04-09 17:12:00,42.3,33.6,29.69,East,90,4.3,4.3,71,0.01,,---,0.08,VWS V14.01,2013-04-09 23:12:00,
2013-04-09 17:17:00,42.8,33.0,29.69,ESE,112,3.6,5.1,68,0.01,,---,0.08,VWS V14.01,2013-04-09 23:17:00,
2013-04-09 17:22:00,43.2,32.2,29.69,ESE,112,4.7,4.7,65,0.01,,---,0.08,VWS V14.01,2013-04-09 23:22:00,
2013-04-09 17:27:00,43.9,31.7,29.69,SE,135,6.7,6.7,62,0.01,,---,0.08,VWS V14.01,2013-04-09 23:27:00,
2013-04-09 17:32:00,44.6,30.8,29.70,SE,135,4.9,4.9,58,0.01,,---,0.08,VWS V14.01,2013-04-09 23:32:00,
2013-04-09 17:37:00,45.0,30.7,29.70,SSE,158,3.4,3.4,57,0.01,,---,0.08,VWS V14.01,2013-04-09 23:37:00,
2013-04-09 17:42:00,45.2,30.9,29.70,SE,135,1.1,1.1,57,0.01,,---,0.08,VWS V14.01,2013-04-09 23:42:00,
2013-04-09 17:47:00,45.4,30.2,29.70,ESE,112,2.5,2.5,55,0.00,,---,0.08,VWS V14.01,2013-04-09 23:47:00,
2013-04-09 17:52:00,45.5,29.4,29.70,SSE,158,5.4,5.4,53,0.00,,---,0.08,VWS V14.01,2013-04-09 23:52:00,
2013-04-09 17:57:00,45.7,30.0,29.70,SE,135,2.5,2.5,54,0.00,,---,0.08,VWS V14.01,2013-04-09 23:57:00,
2013-04-09 18:02:00,45.9,30.2,29.70,SE,135,2.2,2.2,54,0.00,,---,0.08,VWS V14.01,2013-04-10 00:02:00,
2013-04-09 18:07:00,45.9,29.3,29.71,ESE,112,6.0,6.0,52,0.00,,---,0.08,VWS V14.01,2013-04-10 00:07:00,
2013-04-09 18:12:00,45.9,28.8,29.71,ESE,112,4.0,4.0,51,0.00,,---,0.08,VWS V14.01,2013-04-10 00:12:00,
2013-04-09 18:17:00,45.9,29.3,29.71,ESE,112,3.4,3.4,52,0.00,,---,0.08,VWS V14.01,2013-04-10 00:17:00,
2013-04-09 18:22:00,45.9,29.8,29.71,SE,135,2.0,2.0,53,0.00,,---,0.08,VWS V14.01,2013-04-10 00:22:00,
2013-04-09 18:27:00,45.9,29.3,29.72,SSE,158,0.7,0.7,52,0.00,,---,0.08,VWS V14.01,2013-04-10 00:27:00,
2013-04-09 18:32:00,46.1,29.5,29.71,SE,135,1.1,1.1,52,0.00,,---,0.08,VWS V14.01,2013-04-10 00:32:00,
2013-04-09 18:37:00,45.7,29.1,29.71,SE,135,2.5,2.5,52,0.00,,---,0.08,VWS V14.01,2013-04-10 00:37:00,
2013-04-09 18:42:00,45.7,29.6,29.71,ESE,112,4.3,4.3,53,0.00,,---,0.08,VWS V14.01,2013-04-10 00:42:00,
2013-04-09 18:47:00,45.5,29.8,29.72,SE,135,1.8,1.8,54,0.00,,---,0.08,VWS V14.01,2013-04-10 00:47:00,
2013-04-09 18:52:00,45.4,30.6,29.72,SSE,158,3.8,3.8,56,0.00,,---,0.08,VWS V14.01,2013-04-10 00:52:00,
2013-04-09 18:57:00,45.0,29.8,29.71,SSE,158,3.4,3.4,55,0.00,,---,0.08,VWS V14.01,2013-04-10 00:57:00,
2013-04-09 19:02:00,44.8,30.5,29.73,SE,135,4.7,4.7,57,0.00,,---,0.00,VWS V14.01,2013-04-10 01:02:00,
2013-04-09 19:07:00,44.8,30.1,29.73,SSE,158,3.4,3.4,56,0.00,,---,0.08,VWS V14.01,2013-04-10 01:07:00,
2013-04-09 19:12:00,44.8,29.6,29.73,SE,135,4.5,4.5,55,0.00,,---,0.08,VWS V14.01,2013-04-10 01:12:00,
2013-04-09 19:17:00,45.0,29.4,29.74,SSE,158,2.5,2.5,54,0.00,,---,0.08,VWS V14.01,2013-04-10 01:17:00,
2013-04-09 19:22:00,45.0,29.8,29.73,SSE,158,3.4,3.4,55,0.00,,---,0.08,VWS V14.01,2013-04-10 01:22:00,
2013-04-09 19:27:00,44.6,29.9,29.73,SSE,158,5.4,5.4,56,0.00,,---,0.08,VWS V14.01,2013-04-10 01:27:00,
2013-04-09 19:32:00,44.3,30.0,29.74,SE,135,3.8,3.8,57,0.00,,---,0.08,VWS V14.01,2013-04-10 01:32:00,
2013-04-09 19:37:00,44.3,31.3,29.75,SSE,158,2.2,2.2,60,0.00,,---,0.08,VWS V14.01,2013-04-10 01:37:00,
2013-04-09 19:42:00,43.9,31.3,29.75,SSE,158,4.0,4.0,61,0.00,,---,0.08,VWS V14.01,2013-04-10 01:42:00,
2013-04-09 19:47:00,43.6,31.9,29.75,SSE,158,0.7,0.7,63,0.00,,---,0.08,VWS V14.01,2013-04-10 01:47:00,
2013-04-09 19:52:00,43.6,31.9,29.76,SSE,158,2.5,2.5,63,0.00,,---,0.08,VWS V14.01,2013-04-10 01:52:00,
2013-04-09 19:57:00,43.4,32.0,29.76,SSE,158,0.7,0.7,64,0.00,,---,0.08,VWS V14.01,2013-04-10 01:57:00,
2013-04-09 20:02:00,43.2,31.9,29.76,South,180,2.5,2.5,64,0.00,,---,0.08,VWS V14.01,2013-04-10 02:02:00,
2013-04-09 20:07:00,43.2,32.2,29.76,SE,135,1.6,1.6,65,0.00,,---,0.08,VWS V14.01,2013-04-10 02:07:00,
2013-04-09 20:12:00,42.8,32.6,29.76,East,90,3.6,3.6,67,0.00,,---,0.08,VWS V14.01,2013-04-10 02:12:00,
2013-04-09 20:17:00,42.5,32.7,29.76,East,90,1.6,1.6,68,0.00,,---,0.08,VWS V14.01,2013-04-10 02:17:00,
2013-04-09 20:22:00,42.3,32.5,29.77,East,90,0.9,0.9,68,0.00,,---,0.08,VWS V14.01,2013-04-10 02:22:00,
2013-04-09 20:27:00,42.3,32.5,29.77,ESE,112,2.5,2.5,68,0.00,,---,0.08,VWS V14.01,2013-04-10 02:27:00,
2013-04-09 20:32:00,42.3,32.5,29.77,SE,135,1.8,1.8,68,0.00,,---,0.08,VWS V14.01,2013-04-10 02:32:00,
2013-04-09 20:37:00,42.5,32.3,29.78,North,0,2.5,2.5,67,0.00,,---,0.08,VWS V14.01,2013-04-10 02:37:00,
2013-04-09 20:42:00,41.8,32.0,29.77,ENE,68,2.0,2.0,68,0.00,,---,0.08,VWS V14.01,2013-04-10 02:42:00,
2013-04-09 20:47:00,41.4,32.4,29.78,NNE,22,6.9,6.9,70,0.00,,---,0.08,VWS V14.01,2013-04-10 02:47:00,
2013-04-09 20:52:00,41.2,32.5,29.78,East,90,0.4,0.4,71,0.00,,---,0.08,VWS V14.01,2013-04-10 02:52:00,
2013-04-09 20:57:00,40.9,32.6,29.78,ESE,112,1.1,1.1,72,0.00,,---,0.08,VWS V14.01,2013-04-10 02:57:00,
2013-04-09 21:02:00,40.7,32.4,29.78,East,90,3.4,3.4,72,0.00,,---,0.08,VWS V14.01,2013-04-10 03:02:00,
2013-04-09 21:07:00,40.9,32.2,29.77,East,90,3.6,3.6,71,0.00,,---,0.08,VWS V14.01,2013-04-10 03:07:00,
2013-04-09 21:12:00,40.9,32.2,29.78,East,90,0.7,0.7,71,0.00,,---,0.08,VWS V14.01,2013-04-10 03:12:00,
2013-04-09 21:17:00,40.7,32.0,29.78,East,90,0.2,0.2,71,0.00,,---,0.08,VWS V14.01,2013-04-10 03:17:00,
2013-04-09 21:22:00,40.7,32.0,29.78,ESE,112,2.9,2.9,71,0.00,,---,0.08,VWS V14.01,2013-04-10 03:22:00,
2013-04-09 21:27:00,41.0,32.0,29.78,SE,135,1.6,1.6,70,0.00,,---,0.08,VWS V14.01,2013-04-10 03:27:00,
2013-04-09 21:32:00,41.2,31.8,29.78,SE,135,1.3,1.3,69,0.00,,---,0.08,VWS V14.01,2013-04-10 03:32:00,
2013-04-09 21:37:00,41.2,31.5,29.78,SE,135,0.4,0.4,68,0.00,,---,0.08,VWS V14.01,2013-04-10 03:37:00,
2013-04-09 21:42:00,41.2,31.5,29.78,SE,135,0.4,0.4,68,0.00,,---,0.08,VWS V14.01,2013-04-10 03:42:00,
2013-04-09 21:47:00,41.2,31.1,29.78,SE,135,2.0,2.0,67,0.00,,---,0.08,VWS V14.01,2013-04-10 03:47:00,
2013-04-09 21:52:00,41.4,31.3,29.79,SE,135,1.1,1.1,67,0.00,,---,0.08,VWS V14.01,2013-04-10 03:52:00,
2013-04-09 21:57:00,41.8,31.7,29.79,SE,135,1.6,1.6,67,0.00,,---,0.08,VWS V14.01,2013-04-10 03:57:00,
2013-04-09 22:00:00,41.8,31.7,29.79,SE,135,2.7,2.7,67,0.00,,---,0.08,VWS V14.01,2013-04-10 04:00:00,
2013-04-09 22:05:00,42.1,32.0,29.79,SE,135,4.0,4.0,67,0.00,,---,0.08,VWS V14.01,2013-04-10 04:05:00,
2013-04-09 22:10:00,42.1,31.6,29.79,SE,135,2.5,2.5,66,0.00,,---,0.08,VWS V14.01,2013-04-10 04:10:00,
2013-04-09 22:15:00,42.1,31.6,29.79,SE,135,1.3,1.3,66,0.00,,---,0.08,VWS V14.01,2013-04-10 04:15:00,
2013-04-09 22:20:00,41.8,31.3,29.78,SSE,158,0.9,0.9,66,0.00,,---,0.08,VWS V14.01,2013-04-10 04:20:00,
2013-04-09 22:25:00,41.8,31.3,29.79,SE,135,2.2,2.2,66,0.00,,---,0.08,VWS V14.01,2013-04-10 04:25:00,
2013-04-09 22:30:00,41.8,31.7,29.79,SSE,158,1.8,1.8,67,0.00,,---,0.08,VWS V14.01,2013-04-10 04:30:00,
2013-04-09 22:35:00,41.8,31.7,29.79,SE,135,3.4,3.4,67,0.00,,---,0.08,VWS V14.01,2013-04-10 04:35:00,
2013-04-09 22:40:00,41.8,31.3,29.79,SE,135,0.9,0.9,66,0.00,,---,0.08,VWS V14.01,2013-04-10 04:40:00,
2013-04-09 22:45:00,41.8,31.7,29.79,SSE,158,1.3,1.3,67,0.00,,---,0.08,VWS V14.01,2013-04-10 04:45:00,
2013-04-09 22:50:00,41.8,31.7,29.79,SE,135,4.0,4.0,67,0.00,,---,0.08,VWS V14.01,2013-04-10 04:50:00,
2013-04-09 22:55:00,41.6,31.8,29.80,SSE,158,1.3,1.3,68,0.00,,---,0.08,VWS V14.01,2013-04-10 04:55:00,
2013-04-09 23:00:00,41.4,31.6,29.80,SSE,158,2.2,2.2,68,0.00,,---,0.08,VWS V14.01,2013-04-10 05:00:00,
2013-04-09 23:05:00,41.4,32.0,29.80,SSE,158,1.3,1.3,69,0.00,,---,0.08,VWS V14.01,2013-04-10 05:05:00,
2013-04-09 23:10:00,41.2,31.8,29.80,SSE,158,0.9,0.9,69,0.00,,---,0.08,VWS V14.01,2013-04-10 05:10:00,
2013-04-09 23:15:00,41.0,32.0,29.80,SE,135,0.4,0.4,70,0.00,,---,0.08,VWS V14.01,2013-04-10 05:15:00,
2013-04-09 23:20:00,41.0,32.0,29.80,SSE,158,1.1,1.1,70,0.00,,---,0.08,VWS V14.01,2013-04-10 05:20:00,
2013-04-09 23:25:00,41.0,32.0,29.80,SSE,158,2.5,2.5,70,0.00,,---,0.08,VWS V14.01,2013-04-10 05:25:00,
2013-04-09 23:30:00,41.0,32.0,29.80,SSE,158,1.1,1.1,70,0.00,,---,0.08,VWS V14.01,2013-04-10 05:30:00,
2013-04-09 23:35:00,40.9,31.9,29.80,SE,135,2.5,2.5,70,0.00,,---,0.08,VWS V14.01,2013-04-10 05:35:00,
2013-04-09 23:40:00,40.9,31.9,29.80,SSE,158,0.4,0.4,70,0.00,,---,0.08,VWS V14.01,2013-04-10 05:40:00,
2013-04-09 23:45:00,40.7,31.7,29.80,SSE,158,0.2,0.2,70,0.00,,---,0.08,VWS V14.01,2013-04-10 05:45:00,
2013-04-09 23:50:00,40.7,31.7,29.80,SE,135,0.7,0.7,70,0.00,,---,0.08,VWS V14.01,2013-04-10 05:50:00,
2013-04-09 23:55:00,40.7,31.7,29.80,SSE,158,1.8,1.8,70,0.00,,---,0.08,VWS V14.01,2013-04-10 05:55:00,